Location: Suburban Lights Observatory
(43.1572°N, 89.2764°W)
Time: 10:38:38
(UTC-05:00)

Daily predictions for brighter satellites

Satellite Brightness Start Highest point End
(mag) Time Altitude Azimuth Time Altitude Azimuth Time Altitude Azimuth
Cosmos 1844 Rocket 4.3 20:47:30 10° NW 20:52:34 34° WSW 20:57:35 10° SSW
Lacrosse 5 3.0 20:49:43 10° WSW 20:54:38 49° NW 20:59:34 10° NE
ATLAS CENTAUR R/B 1.9 20:52:21 10° SSW 20:57:18 84° ESE 21:02:23 10° NE
USA 186 2.9 20:54:48 10° S 20:57:36 39° W 21:00:15 10° NNW
Cosmos 1980 4.2 20:52:19 10° SSW 20:57:58 68° WNW 21:03:39 10° NNE
Cosmos 158 Rocket 3.9 20:53:00 10° SSW 20:58:03 82° ESE 21:03:17 10° NNE
SeaSat 1 2.9 20:54:00 10° SE 20:58:46 50° ENE 21:03:33 10° NNW
Cosmos 2228 3.7 20:59:10 10° N 21:03:20 39° ENE 21:07:28 10° SSE
Cosmos 2251 Rocket 3.5 20:59:18 10° SSW 21:04:35 77° ESE 21:09:58 10° NNE
FENGYUN 3A 4.4 21:00:38 10° S 21:05:53 56° W 21:11:12 10° NNW
Cosmos 1892 Rocket 3.6 21:01:47 10° S 21:06:11 73° E 21:10:40 10° NNE
Cosmos 1025 Rocket 3.3 21:01:49 10° SSW 21:06:12 78° W 21:10:36 10° N
BREEZE-M DEB (TANK) 1.9 21:08:17 10° WNW 21:11:21 70° SW 21:13:12 12° SE
Atlas Centaur 2 4.2 21:08:54 10° SSW 21:14:19 20° SSE 21:20:02 10° ESE
Nimbus 7 Rocket 4.5 21:09:31 10° NNE 21:15:27 61° ESE 21:21:16 10° S
ALOS 3.7 21:11:09 10° SSW 21:15:30 38° W 21:19:52 10° NNW
YAOGAN 6 4.1 21:13:00 11° ESE 21:15:51 23° ENE 21:18:51 10° NNE
Terra 4.0 21:15:25 10° ENE 21:16:34 11° ENE 21:17:43 10° NE
COSMOS 2455 4.1 21:14:43 10° SSE 21:18:59 21° ESE 21:23:17 10° ENE
Meteor 1-15 Rocket 4.3 21:15:13 10° N 21:20:47 68° ENE 21:26:23 10° SSE
Cosmos 2237 Rocket 3.3 21:15:28 10° SW 21:20:54 49° WNW 21:26:23 10° NNE
ATLAS 3B R/B 4.4 21:18:09 11° SE 21:21:25 14° ESE 21:24:59 10° ENE
SL-8 R/B 4.1 21:16:39 10° WSW 21:21:29 68° NNW 21:26:18 10° ENE
Envisat 3.0 21:17:19 10° SSE 21:22:21 70° ENE 21:27:25 10° N
Cosmos 1110 Rocket 4.3 21:17:27 10° NNW 21:22:44 70° WSW 21:27:57 10° S
Cosmos 2285 Rocket 4.0 21:16:43 10° NNW 21:23:04 87° ENE 21:29:26 10° SSE
ERS-1 Rocket 3.5 21:19:05 10° S 21:24:00 59° WSW 21:29:00 10° NNW
Cosmos 1939 Rocket 3.0 21:20:13 10° SSE 21:24:22 89° W 21:28:33 10° NNW
Cosmos 2278 Rocket 3.6 21:21:55 10° NW 21:27:03 35° WSW 21:32:08 10° S
Cosmos 1726 Rocket 4.4 21:26:42 10° NNW 21:31:02 51° W 21:35:18 10° SSW
SL-24 R/B - RUBIN 2 4.5 21:27:17 10° SW 21:32:43 75° NW 21:38:55 10° NNE
PSLV R/B 3.1 21:30:19 13° SSE 21:32:57 79° E 21:36:04 10° N
USA 234 3.3 21:27:51 12° SE 21:33:56 86° NE 21:40:33 10° NW
Cosmos 1464 Rocket 4.1 21:31:52 10° N 21:38:00 79° W 21:44:09 10° S
Cosmos 2058 Rocket 3.8 21:35:14 10° NNW 21:39:31 54° W 21:43:45 10° S
Lacrosse 5 rocket 2.0 21:36:39 10° WSW 21:40:28 56° NW 21:44:32 10° NE
Cosmos 2369 Rocket 3.6 21:37:27 10° N 21:42:08 25° NE 21:46:13 12° ESE
Cosmos 1666 3.0 21:41:50 10° NNW 21:45:44 70° W 21:49:18 12° S
Abrixas rocket 2.3 21:43:31 10° WNW 21:46:57 71° SSW 21:48:53 24° SE
SL-16 R/B 2.6 21:41:29 10° SW 21:47:06 66° WNW 21:52:45 10° NNE
Aureole 2 Rocket 2.6 21:45:29 10° SSW 21:49:30 89° WNW 21:53:10 10° NNE
Cosmos 1602 Rocket 3.5 21:45:30 10° S 21:49:58 79° E 21:54:28 10° N
Okean 2 4.3 21:46:15 10° SSW 21:50:19 50° WNW 21:54:25 10° N
ARGOS 3.5 21:48:13 18° SE 21:52:04 52° ENE 21:57:20 10° N
H-2A R/B 3.3 21:50:29 16° ESE 21:53:18 26° ENE 21:57:24 10° N
Cosmos 2034 Rocket 4.2 21:48:51 10° N 21:55:14 78° W 22:01:30 10° S
UNK 4.2 21:51:30 10° NNE 21:56:53 85° ESE 22:02:30 10° SSW
Cosmos 1634 Rocket 4.5 21:52:33 10° N 21:58:26 44° ENE 22:02:12 21° SE
Cosmos 1812 Rocket 3.5 21:55:01 10° N 21:59:24 74° E 22:02:13 22° SSE
Cosmos 1238 4.4 21:58:11 27° SSE 21:59:38 51° E 22:02:36 10° NNE
Timation 1 Rocket 4.4 21:54:54 10° NNW 22:00:56 81° WSW 22:05:17 20° SSE
Cosmos 1461 2.8 21:57:03 10° NW 22:01:24 89° WSW 22:03:39 26° SSE
SPOT 1/Viking Rocket 3.5 21:57:45 19° SSE 22:01:30 78° ENE 22:06:40 10° N
USA 245 4.3 21:57:48 17° SSE 22:02:42 81° ENE 22:08:10 10° N
Cosmos 1346 Rocket 4.0 22:10:07 24° ESE 22:10:35 24° E 22:13:47 10° NE
H-2A R/B 4.4 22:10:42 10° SW 22:13:42 19° W 22:16:46 10° NW
DEBRIS 3.5 22:10:43 10° WNW 22:14:25 27° SW 22:15:01 24° SSW
CZ-4 R/B 3.9 22:09:42 10° NNE 22:14:42 72° ESE 22:18:29 18° S
Cosmos 1515 3.7 22:13:48 30° SSE 22:15:32 63° E 22:19:23 10° NNE
Cosmos 1603 3.6 22:10:06 10° SSW 22:15:43 85° ESE 22:21:21 10° NNE
Geosat 4.0 22:10:49 10° NE 22:15:48 58° ESE 22:19:56 15° S
SPOT 5 4.1 22:17:32 11° SSW 22:21:25 32° W 22:25:21 10° NNW
SeaSat 1 4.3 22:32:57 11° SSW 22:36:29 23° WSW 22:40:24 10° NW
Landsat 7 3.7 22:35:43 35° SSE 22:37:44 84° ENE 22:42:31 10° NNW
CZ-4B R/B 4.4 22:33:25 10° N 22:38:16 49° WNW 22:43:13 10° SW
Cosmos 1953 Rocket 3.6 22:38:28 41° SSE 22:39:48 63° E 22:44:11 10° NNE
Cosmos 1943 3.2 22:39:29 28° S 22:42:21 59° ESE 22:47:57 10° NNE
DELTA 2 DEB (DPAF) 4.3 22:40:32 34° S 22:42:24 70° WSW 22:46:54 10° NNW
Cosmos 2346 Rocket 4.4 22:41:46 22° S 22:45:58 87° W 22:52:10 10° N
Cosmos 1766 3.5 22:45:40 10° N 22:49:35 53° E 22:50:05 49° ESE
Spot 2 4.3 22:48:43 10° NNE 22:53:25 69° ESE 22:54:59 42° S
Terra 1.7 22:52:00 44° SSE 22:53:32 85° ENE 22:58:19 10° NNW
CZ-4C R/B 4.2 22:53:47 33° SSW 22:55:20 49° W 22:59:23 10° NNW
Cosmos 1943 Rocket 3.1 22:53:40 10° N 22:58:49 38° ENE 23:01:00 27° ESE
Atlas Centaur 2 3.7 22:55:55 10° SW 23:03:01 32° S 23:03:19 32° SSE
COSMOS 2455 3.1 22:58:22 10° SW 23:04:20 68° WNW 23:10:21 10° NNE
IGS 5A 3.4 23:06:01 58° SSW 23:06:45 76° WSW 23:10:55 10° NNW
Cosmos 407 Rocket 3.4 23:05:15 44° S 23:06:55 72° ESE 23:12:09 10° NNE
Cosmos-2242 3.2 23:03:52 10° N 23:08:13 57° E 23:08:43 53° ESE
ATLAS 3B R/B 2.9 23:05:14 19° SSW 23:10:59 70° ESE 23:18:29 10° NE
Cosmos 1758 Rocket 3.7 23:13:15 45° SW 23:14:27 67° W 23:18:50 10° N
Cosmos 1953 2.5 23:13:09 10° N 23:17:03 56° ENE 23:17:03 56° ENE
USA 234 4.4 23:15:11 23° SSW 23:17:24 27° SW 23:22:51 10° WNW
CARTOSAT-1 4.2 23:17:46 41° SW 23:18:40 47° W 23:22:52 10° NNW
Lacrosse 5 rocket 4.4 23:17:54 10° WNW 23:20:34 17° NNW 23:23:18 10° NNE
ALOS 2 4.4 23:21:10 19° ENE 23:21:53 20° ENE 23:25:03 10° NNE
CZ-4B R/B 3.9 23:23:54 15° ENE 23:23:54 15° ENE 23:26:00 10° NNE
Cosmos 1954 Rocket 4.0 23:24:13 55° SE 23:24:58 60° ESE 23:30:12 10° NNE
Cosmos 2369 Rocket 2.6 23:20:58 10° NNW 23:26:30 54° WSW 23:28:01 42° SSW
Lacrosse 4 Rocket 1.2 23:26:58 79° ENE 23:26:58 79° ENE 23:30:53 10° NNE
Cosmos 1805 3.5 23:23:29 10° N 23:27:10 59° ENE 23:27:10 59° ENE
Cosmos 1092 Rocket 4.4 23:28:12 41° SE 23:29:39 48° E 23:35:39 10° NNE
H-2A R/B 2.9 23:31:07 32° SW 23:32:31 39° W 23:37:13 10° NNW
USA 238 DEB 4.0 23:39:28 44° SE 23:40:37 48° ESE 23:47:20 10° NE
USA 238 4.0 23:39:36 44° SE 23:40:43 47° ESE 23:47:25 10° NE
Cosmos 1842 Rocket 3.5 23:38:59 10° N 23:43:20 70° ENE 23:43:20 70° ENE
Nadezhda 4 Rocket 3.9 23:42:14 49° S 23:44:04 82° E 23:50:26 10° N
COSMOS 2406 3.4 23:44:14 49° ESE 23:44:31 49° ESE 23:50:02 10° NE
Cosmos 1570 Rocket 4.1 23:45:25 10° NNW 23:50:47 70° ENE 23:51:37 59° ESE
ISS -0.6 23:55:47 14° NE 23:55:47 14° NE 23:56:22 10° NE
